www.pogodaiklimat.ru

Погода и климат >> Архив погоды >> Россия >> Кировская область >> Нагорск


ПОГОДА в Нагорске

  • Прогноз погоды в Нагорске
  • Монитор погоды в Нагорске

АРХИВ ПОГОДЫ в Нагорске

Время (UTC), дата Ветер
(напр.,м/с)
 
Видим.   Явления Облачность Т
(С)
Тd
(С)
f
(%)
Тe
(С)
Тes
(С)
Комфортность P
(гПа)
Po
(гПа)
Тmin
(С)
Tmax
(С)
R
(мм)
R24
(мм)
S
(см)
15 16.07 З 4-7
{11}
50 км 3/3 1000 м
[Cu med, cong]
+20.7 +9.3 48 +22 +23 комфорт 1009.9 985.4 +21.5 0.4
18 16.07 З 2-3
{6}
50 км 4/1 1000 м
[Cu med, cong Ci fib]
+16.3 +9.4 64 +16 +16 1012.0 987.2
21 16.07 З 2-3
{4}
50 км 3/0
[Ci fib]
+13.9 +8.5 70 +13 +13 1012.5 987.4
00 17.07 З 1-1
{3}
50 км 1/0
[Ci fib]
+11.9 +7.8 76 +12 +12 1015.2 989.8
03 17.07 СВ 1-1
{2}
50 км 1/0
[Ci fib]
+15.9 +9.3 65 +17 +20 1016.1 991.1 +11.4
06 17.07 С 1-2
{2}
50 км 4/0
[Ci fib]
+20.7 +8.5 45 +23 +34 комфорт 1016.0 991.4
09 17.07 штиль 0
{3}
50 км 8/4 600 м
[Cu med, cong Ci fib]
+21.2 +6.7 39 +22 +31 комфорт 1016.0 991.4
12 17.07 З 1-3
{5}
50 км 8/5 600 м
[Sc Ci fib]
+22.8 +6.1 34 +23 +28 комфорт 1015.4 991.0
15 17.07 СВ 1-2
{3}
50 км 5/1 1000 м
[Cu hum Ci fib]
+22.8 +7.7 38 +24 +25 комфорт 1014.9 990.5 +23.0
18 17.07 СВ 1-1
{3}
50 км 4/0
[Ac trans Ci fib]
+16.7 +8.8 60 +18 +18 1015.4 990.4
21 17.07 С 1-1
{2}
50 км 3/0
[Ci fib]
+15.0 +8.2 64 +16 +16 1015.5 990.4
00 18.07 С 1-2
{5}
50 км ясно +12.7 +7.6 71 +13 +13 1015.2 989.9
03 18.07 В 1-2
{3}
50 км ясно +16.8 +9.0 60 +18 +21 1014.8 989.8 +12.2
06 18.07 СВ 2-3
{5}
50 км ясно +20.4 +7.6 44 +22 +32 комфорт 1014.2 989.6
09 18.07 В 1-3
{6}
50 км 4/3 1000 м
[Cu hum Ci fib]
+22.2 +7.7 39 +23 +34 комфорт 1013.3 988.8
12 18.07 С 1-3
{4}
50 км 4/1 1000 м
[Cu hum Ci fib]
+23.0 +8.4 39 +24 +32 комфорт 1012.5 988.1
15 18.07 С 3-5
{5}
50 км 4/0
[Ci fib]
+22.6 +7.1 37 +23 +25 комфорт 1011.4 987.1 +24.1
18 18.07 СВ 2-2
{4}
50 км 3/0
[Ac trans]
+18.1 +7.0 48 +19 +19 1011.8 987.1
21 18.07 С 2-4
{4}
50 км ясно +15.7 +6.2 53 +16 +16 1011.4 986.5
00 19.07 СВ 1-2
{4}
50 км ясно +12.5 +10.6 88 +12 +12 1011.9 986.7
03 19.07 В 1-3
{3}
50 км ясно +15.6 +11.1 75 +16 +19 1011.6 986.7 +12.1
06 19.07 С 2-3
{3}
50 км ясно +19.9 +11.7 59 +22 +32 комфорт 1010.4 985.9
09 19.07 СВ 1-3
{4}
50 км 4/0
[Ci fib]
+24.0 +10.3 42 +25 +40 комфорт 1009.3 985.1
12 19.07 ЮВ 1-2
{3}
50 км 6/0
[Ac trans Ci fib]
+25.1 +11.5 43 +27 +34 жарко 1008.7 984.6
15 19.07 штиль 0
{3}
50 км 8/4 600 м
[Sc Ac trans Ci fib]
+24.3 +14.4 54 +27 +28 жарко 1008.4 984.2 +26.5
18 19.07 штиль 0
{3}
50 км в посл. час ливневой дождь 10/4 600 м
[Cb calv Ac trans]
+18.9 +15.7 82 +20 +20 1007.8 983.2
21 19.07 З 2-3
{5}
50 км 6/3 600 м
[Sc Ac trans Ci fib]
+17.5 +13.9 79 +18 +18 1009.6 984.9
00 20.07 штиль 0
{4}
35 км местами туман поземный 3/0
[Ac trans]
+15.1 +13.8 92 +15 +15 1009.4 984.5
03 20.07 штиль 0
{1}
35 км местами туман поземный ясно +18.9 +14.2 74 +20 +23 1009.3 984.7 +14.9 0.1
06 20.07 ЮВ 1-2
{4}
50 км 3/0
[Ci ing]
+22.7 +15.6 64 +27 +38 душно 1009.0 984.8
09 20.07 Ю 1-3
{5}
50 км 8/3 600 м
[Cu med, cong Ci ing]
+23.5 +12.7 51 +26 +35 жарко 1008.9 984.7
12 20.07 Ю 1-4
{6}
50 км 5/3 600 м
[Cu med, cong Ci ing]
+25.4 +11.1 41 +27 +33 жарко 1009.0 984.9
15 20.07 ЮВ 1-1
{5}
50 км 5/3 600 м
[Cb calv Ci fib]
+23.3 +11.2 46 +26 +27 жарко 1008.8 984.6 +26.5
18 20.07 ЮЗ 1-2
{5}
50 км гроза без осадков 5/4 600 м
[Cb cap Ci fib]
+16.4 +13.7 84 +17 +17 1009.3 984.5
21 20.07 ЮЗ 2-5
{5}
50 км {гроза} 1/0
[Ci fib]
+15.6 +13.4 87 +15 +15 1009.5 984.6
00 21.07 Ю 1-2
{5}
50 км {гроза} 6/6 600 м
[Sc]
+13.7 +12.4 92 +14 +14 1009.9 984.8
03 21.07 Ю 1-2
{5}
1000 м дымка {туман} 10/10 240 м
[St]
+13.9 +13.0 94 +14 +14 1010.1 985.1 +13.5 0.2
06 21.07 Ю 1-3
{3}
50 км {туман} 9/0
[Ac trans]
+16.8 +13.6 81 +18 +23 1009.9 985.2
09 21.07 ЮЗ 2-5
{5}
50 км 5/4 600 м
[Cu med, cong Ci fib]
+21.0 +11.9 56 +24 +32 комфорт 1009.2 984.8
12 21.07 ЮЗ 3-5
{6}
50 км 8/8 600 м
[Cu med, cong]
+21.9 +11.1 50 +24 +25 комфорт 1009.2 984.8
15 21.07 З 1-1
{5}
50 км 8/6 600 м
[Cb calv Ci fib]
+18.8 +12.7 68 +21 +21 комфорт 1009.4 984.8 +22.5
18 21.07 З 1-2
{4}
50 км 4/3 600 м
[Cb calv Ac cast Ci fib]
+14.9 +12.7 87 +15 +15 1009.9 985.0
21 21.07 З 2-2
{4}
50 км 1/0
[Ci fib]
+13.4 +11.9 91 +13 +13 1010.0 984.9
00 22.07 З 2-3
{3}
50 км 8/5 600 м
[Cb calv Ac trans Ci fib]
+13.0 +11.9 93 +12 +12 1010.1 985.0
03 22.07 З 2-3
{3}
500 м туман ?/? +12.1 +12.1 100 +11 +11 1010.2 985.0 +11.1
06 22.07 З 2-3
{4}
8000 м дымка {туман} 10/10 210 м
[St]
+13.7 +12.8 94 +13 +13 1009.7 984.6
09 22.07 СЗ 1-2
{4}
50 км 8/6 600 м
[Sc Ci fib]
+18.0 +12.6 71 +19 +25 1008.8 984.1
12 22.07 С 2-3
{4}
50 км 8/8 600 м
[Cu med, cong]
+21.8 +12.3 55 +24 +26 комфорт 1007.6 983.2
15 22.07 З 2-4
{11}
50 км гроза без осадков 8/5 600 м
[Cb cap Ci ing]
+15.7 +13.3 86 +16 +16 1008.0 983.1 +22.4
18 22.07 З 2-4
{5}
50 км {гроза, ливн. осадки} 9/6 600 м
[Sc Ac trans Ci fib]
+15.3 +14.0 92 +15 +15 1008.0 983.1
21 22.07 З 2-3
{5}
50 км 10/10 660 м
[Sc]
+14.8 +13.7 93 +14 +14 1007.9 983.0
00 23.07 З 2-2
{4}
50 км 10/10 300 м
[St]
+14.4 +13.3 93 +14 +14 1008.5 983.5
03 23.07 З 2-3
{4}
50 км 10/0
[As trans]
+15.0 +13.5 91 +15 +16 1009.0 984.1 +14.3 0.1
06 23.07 З 2-3
{4}
50 км 9/0
[Ac trans]
+17.0 +13.0 77 +17 +22 1009.9 985.2
09 23.07 СЗ 2-4
{4}
50 км 9/5 600 м
[Cu med, cong Ac trans]
+19.4 +12.8 66 +21 +25 комфорт 1011.1 986.5
12 23.07 З 2-5
{6}
50 км 6/3 600 м
[Cb calv Ac trans Ci fib]
+21.1 +11.4 54 +23 +27 комфорт 1011.7 987.3

 

Местоположение метеостанции Нагорск (Кировская область, Россия): широта 59.32 долгота 50.83 высота над уровнем моря 213 м.

В архиве по умолчанию представлена погода в Нагорске за последнюю неделю. Архивные данные за месяц целиком и за предыдущие месяцы, начиная с января 2011 года, Вы можете получить, выбрав интересующий диапазон дат из раскрывающегося списка и нажав кнопку "Ввод!".


*Определитесь, кто Вы:
робот инопланетянин человек

Внимание! Время в таблицах - всемирное. Для получения местного времени необходимо прибавить поправку, которая равна 3 ч.

Смотрите также архив погоды в соседних городах и на ближайших метеорологических станциях:

Погода в Белой Холунице (Кировская область, Россия) (55 км)
Погода в Кирсе (Кировская область, Россия) (81 км)
Погода в Кирове (Кировская область, Россия) (106 км)
Погода в Фаленках (Кировская область, Россия) (116 км)
Погода в Койгородке (Коми, Россия) (126 км)
Погода в Объячеве (Коми, Россия) (134 км)
Погода в Кумене (Кировская область, Россия) (146 км)
Погода в Опарино (Кировская область, Россия) (155 км)
Погода в Усть-Черной (Пермский край, Россия) (163 км)
Погода в Глазове (Удмуртия, Россия) (167 км)

Пояснения к столбцам:

Ветер - указаны скорость ветра в м/с - средняя за 10 мин, порывы в срок и между сроками (в фигурных скобках) и направление, откуда дует ветер: С - северный, СВ - северо-восточный, В - восточный, ЮВ - юго-восточный, Ю - южный, ЮЗ - юго-западный, З - западный, СЗ - северо-западный.
Видимость - горизонтальная дальность видимости в метрах или километрах. При видимости от 1 до 10 км при отсутствии осадков обычно наблюдается дымка, при ухудшении видимости до 1 км и менее - туман. В сухую погоду видимость может ухудшаться дымом, пылью или мглою.
Явления - указаны атмосферные явления, наблюдавшиеся в срок или в последний час перед сроком; фигурными скобками обозначены явления, наблюдавшиеся между сроками (за 1-3 часа до срока); квадратными скобками обозначены град или гололедные отложения с указанием их диаметра в мм.
Облачность - указаны через наклонную черту общая и нижняя облачность в баллах и высота нижней границы облаков в метрах; квадратными скобками обозначены формы облаков: Ci - перистые, Cs - перисто-слоистые, Cc - перисто-кучевые, Ac - высококучевые, As - высокослоистые, Sc - слоисто-кучевые, Ns - слоисто-дождевые, Cu - кучевые, Cb - кучево-дождевые. Подробнее классификацию облаков см. в Атласе облаков (PDF).
T - Температура воздуха - температура, измеренная на высоте 2 м над землей.
Td - Температура точки росы - температура, при понижении до которой содержащийся в воздухе водяной пар достигнет насыщения.
f - Относительная влажность воздуха - влажноcть воздуха, измеренная на высоте 2 м над землей.
Te - Эффективная температура - температура, которую ощущает одетый по сезону человек в тени. Характеристика душности погоды. При расчете учитывается влияние влажности воздуха и скорости ветра на теплоощущения человека.
Tes - Эффективная температура на солнце - температура, которую ощущает человек, с поправкой на солнечный нагрев. Характеристика знойности погоды. Зависит от высоты солнца над горизонтом, облачности и скорости ветра. Ночью, в пасмурную погоду, а также при ветре 12 м/с и более поправка равна нулю.
P - Атмосферное давление - приведенное к уровню моря атмосферное давление.
Po - Атмосферное давление - измеренное на уровне метеостанции атмосферное давление.
Tmin - Минимальная температура - минимум температуры воздуха на высоте 2 м над землей.
Tmax - Максимальная температура - максимум температуры воздуха на высоте 2 м над землей.
R - Количество осадков - Количество выпавших осадков за период времени, мм. При наведении курсора мыши на число - период времени, за который выпало указанное количество осадков.
R24 - Количество осадков - Количество выпавших осадков за 24 часа, мм.
S - Снежный покров - Высота снежного покрова, см. При наведении курсора мыши на число - состояние снежного покрова и степень покрытия местности в баллах.